FW7044 Weather Reports


Display with metric or nautical units.
time (UTC)temp
F
wind
direction
speed
MPH
gust
MPH
rain 1hr
in
rain 24hr
in
rain mn
in
humidity
%
barometer
mb
20260502170506 91 302 3.0 5.0 0.00 0.00 0.00 64 1011.6
20260502163949 92 92 3.0 5.0 0.00 0.00 0.00 62 1011.6
20260502163445 92 246 3.0 5.0 0.00 0.00 0.00 62 1011.7
20260502162943 92 230 4.0 5.0 0.00 0.00 0.00 64 1011.9
20260502162439 92 236 2.0 3.0 0.00 0.00 0.00 63 1012.0
20260502161936 91 278 5.0 7.0 0.00 0.00 0.00 63 1012.0
20260502161432 93 269 7.0 9.0 0.00 0.00 0.00 63 1012.0
20260502160931 93 226 3.0 7.0 0.00 0.00 0.00 61 1011.9
20260502160428 92 236 7.0 9.0 0.00 0.00 0.00 62 1012.0
20260502151907 89 206 3.0 5.0 0.00 0.00 0.00 72 1012.2
20260502151403 88 281 2.0 3.0 0.00 0.00 0.00 74 1012.2
20260502150901 88 294 3.0 6.0 0.00 0.00 0.00 75 1012.4
20260502150357 88 285 1.0 2.0 0.00 0.00 0.00 75 1012.3
20260502130745 81 223 3.0 3.0 0.00 0.00 0.00 83 1011.9
20260502130243 81 260 1.0 2.0 0.00 0.00 0.00 85 1011.9
20260502123729 78 180 2.0 2.0 0.00 0.00 0.00 87 1012.1
20260502123225 77 298 2.0 3.0 0.00 0.00 0.00 88 1012.1
20260502122722 76 191 2.0 2.0 0.00 0.00 0.00 91 1012.2
20260502122218 75 317 0.0 1.0 0.00 0.00 0.00 95 1012.1
20260502121717 74 27 1.0 1.0 0.00 0.00 0.00 98 1012.0
20260502121214 74 274 0.0 0.0 0.00 0.00 0.00 99 1011.9
20260502120710 74 258 1.0 1.0 0.00 0.00 0.00 99 1011.9
20260502120207 73 208 1.0 2.0 0.00 0.00 0.00 99 1011.9
20260502115705 73 277 1.0 1.0 0.00 0.00 0.00 99 1011.9
20260502115201 73 273 1.0 1.0 0.00 0.00 0.00 99 1012.0
20260502114657 73 298 0.0 1.0 0.00 0.00 0.00 99 1011.9
20260502114155 72 276 0.0 0.0 0.00 0.00 0.00 99 1011.8
20260502113652 72 215 1.0 2.0 0.00 0.00 0.00 99 1011.8
20260502113150 72 290 1.0 2.0 0.00 0.00 0.00 99 1011.8
20260502112648 72 195 2.0 2.0 0.00 0.00 0.00 99 1012.0
20260502112145 72 263 1.0 1.0 0.00 0.00 0.00 99 1011.8
20260502111642 71 209 4.0 5.0 0.00 0.00 0.00 99 1012.1
20260502111140 71 275 1.0 1.0 0.00 0.00 0.00 99 1011.9
20260502110637 71 269 1.0 1.0 0.00 0.00 0.00 99 1011.9
20260502110134 71 274 0.0 0.0 0.00 0.00 0.00 99 1012.1
20260502105632 71 279 0.0 0.0 0.00 0.00 0.00 99 1011.9
20260502105129 70 288 0.0 0.0 0.00 0.00 0.00 99 1012.0
20260502104626 70 294 0.0 0.0 0.00 0.00 0.00 99 1012.0
20260502104123 70 220 0.0 0.0 0.00 0.00 0.00 99 1011.9
20260502103621 70 299 0.0 0.0 0.00 0.00 0.00 99 1011.9
20260502103119 70 279 0.0 0.0 0.00 0.00 0.00 99 1011.9
20260502102615 69 273 0.0 0.0 0.00 0.00 0.00 99 1011.7
20260502102112 69 273 0.0 0.0 0.00 0.00 0.00 99 1011.8
20260502101610 69 273 0.0 0.0 0.00 0.00 0.00 99 1011.7
20260502101108 69 273 0.0 0.0 0.00 0.00 0.00 99 1011.8
20260502100606 69 273 0.0 0.0 0.00 0.00 0.00 99 1011.8
20260502100104 69 279 0.0 0.0 0.00 0.00 0.00 99 1011.8
20260502091038 70 285 0.0 0.0 0.00 0.00 0.00 98 1011.9
20260502090535 70 285 0.0 0.0 0.00 0.00 0.00 98 1012.1
20260502071429 72 291 0.0 0.0 0.00 0.00 0.00 94 1011.8
20260502070928 73 291 0.0 0.0 0.00 0.00 0.00 93 1011.9
20260502070425 73 291 0.0 0.0 0.00 0.00 0.00 93 1011.8
20260502065924 73 291 0.0 0.0 0.00 0.00 0.00 93 1011.5
20260502065422 73 291 0.0 0.0 0.00 0.00 0.00 93 1011.8
20260502064920 73 292 0.0 0.0 0.00 0.00 0.00 92 1011.7
20260502064417 73 292 0.0 0.0 0.00 0.00 0.00 92 1011.8
20260502063914 73 292 0.0 0.0 0.00 0.00 0.00 91 1011.8
20260502063412 74 291 0.0 0.0 0.00 0.00 0.00 91 1011.7
20260502062909 74 293 0.0 0.0 0.00 0.00 0.00 90 1011.7
20260502062406 75 293 0.0 0.0 0.00 0.00 0.00 90 1011.7
20260502061905 75 293 0.0 0.0 0.00 0.00 0.00 88 1011.7
20260502061403 75 293 0.0 0.0 0.00 0.00 0.00 88 1011.8
20260502060858 75 299 0.0 0.0 0.00 0.00 0.00 88 1011.8
20260502060353 75 303 0.0 0.0 0.00 0.00 0.00 87 1012.1
20260502055851 76 278 0.0 1.0 0.00 0.00 0.00 86 1011.8
20260502055349 76 275 0.0 1.0 0.00 0.00 0.00 86 1012.1
20260502054848 76 289 0.0 0.0 0.00 0.00 0.00 86 1011.9
20260502054345 76 281 1.0 1.0 0.00 0.00 0.00 86 1012.1
20260502053843 76 298 0.0 0.0 0.00 0.00 0.00 86 1012.3
20260502053340 76 289 1.0 1.0 0.00 0.00 0.00 87 1012.2
20260502052837 76 309 1.0 1.0 0.00 0.00 0.00 87 1012.3
20260502052335 76 291 0.0 0.0 0.00 0.00 0.00 86 1012.1
20260502051833 77 287 0.0 0.0 0.00 0.00 0.00 86 1012.2
20260502051332 77 310 0.0 0.0 0.00 0.00 0.00 86 1012.2
20260502050827 77 297 0.0 0.0 0.00 0.00 0.00 86 1012.5
20260502050324 77 335 0.0 0.0 0.00 0.00 0.00 86 1012.4
20260502045821 77 205 0.0 1.0 0.00 0.00 0.00 86 1012.3
20260502045318 77 262 1.0 1.0 0.00 0.00 0.00 86 1012.3
20260502044815 77 280 0.0 0.0 0.00 0.00 0.00 85 1012.6
20260502044311 77 291 0.0 0.0 0.00 0.00 0.00 85 1012.4
20260502043808 77 228 3.0 3.0 0.00 0.00 0.00 84 1012.8
20260502043306 78 238 1.0 1.0 0.00 0.00 0.00 84 1012.8
20260502042805 78 303 0.0 0.0 0.00 0.00 0.00 83 1012.5
20260502042305 78 279 0.0 0.0 0.00 0.00 0.00 83 1012.7
20260502041800 78 298 0.0 0.0 0.00 0.00 0.00 82 1012.4
20260502041257 78 299 0.0 0.0 0.00 0.00 0.00 82 1012.5
20260502040754 78 305 0.0 0.0 0.00 0.00 0.00 83 1012.6
20260502040251 78 244 1.0 1.0 0.00 0.00 0.00 85 1012.5
20260502035747 78 284 1.0 2.0 0.00 0.00 0.00 84 1012.4
20260502035244 78 263 1.0 1.0 0.00 0.00 0.00 85 1012.6
20260502034741 78 251 2.0 2.0 0.00 0.00 0.00 86 1012.4
20260502034239 78 219 3.0 3.0 0.00 0.00 0.00 87 1012.6
20260502033737 78 216 1.0 2.0 0.00 0.00 0.00 87 1012.7
20260502033235 78 260 0.0 1.0 0.00 0.00 0.00 87 1012.7
20260502032731 78 235 1.0 1.0 0.00 0.00 0.00 87 1012.6
20260502032227 78 226 1.0 1.0 0.00 0.00 0.00 86 1012.5
20260502031726 78 265 0.0 0.0 0.00 0.00 0.00 86 1012.5
20260502031223 78 221 0.0 0.0 0.00 0.00 0.00 86 1012.4
20260502030722 78 204 1.0 3.0 0.00 0.00 0.00 86 1012.6
20260502030219 78 226 2.0 2.0 0.00 0.00 0.00 87 1012.5
20260502025716 78 228 2.0 2.0 0.00 0.00 0.00 88 1012.3
20260502025214 78 225 2.0 2.0 0.00 0.00 0.00 89 1012.5
20260502024712 78 261 0.0 0.0 0.00 0.00 0.00 90 1012.5
20260502024209 78 269 0.0 0.0 0.00 0.00 0.00 90 1012.4
20260502023707 78 293 0.0 0.0 0.00 0.00 0.00 89 1012.7
20260502023204 78 307 0.0 0.0 0.00 0.00 0.00 89 1012.6
20260502022702 78 214 1.0 2.0 0.00 0.00 0.00 90 1012.6
20260502022158 78 295 0.0 0.0 0.00 0.00 0.00 89 1012.4
20260502021655 79 295 0.0 0.0 0.00 0.00 0.00 88 1012.4
20260502021153 79 292 1.0 1.0 0.00 0.00 0.00 87 1012.3
20260502020650 80 280 0.0 0.0 0.00 0.00 0.00 86 1012.3
20260502020146 80 172 1.0 2.0 0.00 0.00 0.00 86 1012.0
20260502015644 80 249 0.0 0.0 0.00 0.00 0.00 85 1011.9
20260502015140 80 186 2.0 2.0 0.00 0.00 0.00 85 1011.9
20260502014638 80 201 1.0 2.0 0.00 0.00 0.00 84 1011.9
20260502014135 80 97 1.0 1.0 0.00 0.00 0.00 84 1011.7
20260502013631 80 197 0.0 0.0 0.00 0.00 0.00 83 1011.7
20260502013126 80 190 0.0 1.0 0.00 0.00 0.00 82 1011.6
20260502012624 81 200 2.0 2.0 0.00 0.00 0.00 82 1011.5
20260502012122 81 183 0.0 0.0 0.00 0.00 0.00 82 1011.6
20260502011619 80 100 1.0 1.0 0.00 0.00 0.00 82 1011.6
20260502011114 80 237 0.0 0.0 0.00 0.00 0.00 83 1011.3
20260502010612 80 309 0.0 0.0 0.00 0.00 0.00 83 1011.5
20260502010108 81 197 0.0 0.0 0.00 0.00 0.00 83 1011.3
20260502005606 81 197 0.0 0.0 0.00 0.00 0.00 81 1011.4
20260502005104 81 196 1.0 1.0 0.00 0.00 0.00 81 1011.3
20260502004559 82 252 0.0 0.0 0.00 0.00 0.00 81 1011.3
20260502004056 82 220 1.0 1.0 0.00 0.00 0.00 80 1011.1
20260502003555 81 268 0.0 0.0 0.00 0.00 0.00 81 1010.9
20260502003051 81 41 0.0 0.0 0.00 0.00 0.00 83 1010.9
20260502002547 81 251 0.0 0.0 0.00 0.00 0.00 83 1010.7
20260502002044 82 251 0.0 0.0 0.00 0.00 0.00 83 1010.6
20260502001542 82 243 1.0 1.0 0.00 0.00 0.00 81 1010.6
20260502001039 83 76 0.0 0.0 0.00 0.00 0.00 79 1010.5
20260502000537 83 75 0.0 0.0 0.00 0.00 0.00 79 1010.3
20260502000034 84 75 0.0 0.0 0.00 0.00 0.00 78 1010.4
20260501235530 84 75 0.0 0.0 0.00 0.00 0.00 76 1010.4
20260501235026 85 75 0.0 0.0 0.00 0.00 0.00 77 1010.4
20260501234522 85 76 0.0 0.0 0.00 0.00 0.00 76 1010.7
20260501234020 85 75 0.0 1.0 0.00 0.00 0.00 75 1010.4
20260501233518 86 22 0.0 0.0 0.00 0.00 0.00 75 1010.4
20260501233014 86 348 0.0 0.0 0.00 0.00 0.00 74 1010.0
20260501232510 87 23 0.0 0.0 0.00 0.00 0.00 73 1010.1
20260501232008 87 92 1.0 2.0 0.00 0.00 0.00 72 1010.1
20260501231506 88 65 0.0 1.0 0.00 0.00 0.00 71 1009.9
20260501231004 88 114 0.0 1.0 0.00 0.00 0.00 71 1009.9
20260501230503 88 96 1.0 2.0 0.00 0.00 0.00 70 1010.0
20260501225959 88 101 1.0 2.0 0.00 0.00 0.00 70 1010.0
20260501225457 89 89 3.0 6.0 0.00 0.00 0.00 68 1009.8
20260501224953 89 129 5.0 7.0 0.00 0.00 0.00 68 1009.7
20260501224451 88 147 1.0 2.0 0.00 0.00 0.00 69 1009.8
20260501223948 88 103 4.0 6.0 0.00 0.00 0.00 69 1009.9
20260501223444 88 87 7.0 9.0 0.00 0.00 0.00 69 1009.7
20260501222939 88 154 1.0 2.0 0.00 0.00 0.00 69 1009.8
20260501222437 88 127 2.0 5.0 0.00 0.00 0.00 68 1009.7
20260501221933 88 62 4.0 6.0 0.00 0.00 0.00 67 1009.6
20260501221430 89 106 6.0 8.0 0.00 0.00 0.00 65 1009.8
20260501220928 90 142 4.0 7.0 0.00 0.00 0.00 63 1009.7
20260501220425 91 182 1.0 2.0 0.00 0.00 0.00 63 1009.6
20260501215921 90 106 2.0 3.0 0.00 0.00 0.00 64 1009.7
20260501215418 91 120 2.0 5.0 0.00 0.00 0.00 63 1009.7
20260501214914 93 83 3.0 6.0 0.00 0.00 0.00 59 1009.7
20260501214409 94 103 5.0 6.0 0.00 0.00 0.00 50 1009.6
20260501213905 96 155 1.0 1.0 0.00 0.00 0.00 49 1009.7
20260501213402 97 323 1.0 1.0 0.00 0.00 0.00 49 1010.0
20260501212857 97 338 0.0 0.0 0.00 0.00 0.00 48 1009.7
20260501212354 96 229 3.0 3.0 0.00 0.00 0.00 48 1009.7
20260501211851 96 245 0.0 1.0 0.00 0.00 0.00 48 1009.9
20260501211349 94 307 0.0 0.0 0.00 0.00 0.00 50 1009.7
20260501210846 96 302 1.0 2.0 0.00 0.00 0.00 50 1009.9
20260501210343 95 222 2.0 3.0 0.00 0.00 0.00 51 1009.9
20260501205839 95 100 1.0 2.0 0.00 0.00 0.00 48 1009.9
20260501205336 95 306 4.0 5.0 0.00 0.00 0.00 52 1010.1
20260501204833 95 78 3.0 3.0 0.00 0.00 0.00 50 1009.9
20260501204329 93 182 1.0 1.0 0.00 0.00 0.00 53 1010.1
20260501203825 93 233 2.0 2.0 0.00 0.00 0.00 52 1010.3
20260501203323 92 219 1.0 1.0 0.00 0.00 0.00 54 1010.2
20260501202820 92 115 2.0 2.0 0.00 0.00 0.00 54 1010.5
20260501202317 93 224 1.0 1.0 0.00 0.00 0.00 55 1010.6
20260501201814 92 50 0.0 1.0 0.00 0.00 0.00 57 1010.4
20260501201310 92 49 0.0 0.0 0.00 0.00 0.00 56 1010.6
20260501200807 93 353 0.0 0.0 0.00 0.00 0.00 53 1010.8
20260501200304 93 281 0.0 0.0 0.00 0.00 0.00 51 1011.0
20260501195802 93 216 0.0 0.0 0.00 0.00 0.00 54 1011.0
20260501195257 93 226 1.0 2.0 0.00 0.00 0.00 52 1011.3
20260501194753 92 201 0.0 0.0 0.00 0.00 0.00 54 1011.3
20260501194249 93 225 0.0 0.0 0.00 0.00 0.00 54 1011.4
20260501193746 93 220 2.0 2.0 0.00 0.00 0.00 54 1011.4
20260501193245 93 282 0.0 0.0 0.00 0.00 0.00 54 1011.6
20260501192742 92 289 0.0 0.0 0.00 0.00 0.00 54 1011.8
20260501192238 93 293 0.0 0.0 0.00 0.00 0.00 54 1011.6
20260501191736 93 339 0.0 0.0 0.00 0.00 0.00 54 1011.6
20260501191233 93 359 2.0 2.0 0.00 0.00 0.00 55 1011.7
20260501190729 94 228 3.0 5.0 0.00 0.00 0.00 51 1011.5
20260501190225 95 303 2.0 2.0 0.00 0.00 0.00 52 1011.7
20260501185721 93 278 1.0 1.0 0.00 0.00 0.00 55 1011.8
20260501185217 92 226 1.0 2.0 0.00 0.00 0.00 54 1011.8
20260501184713 92 192 3.0 3.0 0.00 0.00 0.00 55 1012.0
20260501184209 91 203 2.0 3.0 0.00 0.00 0.00 57 1012.0
20260501183705 93 231 6.0 8.0 0.00 0.00 0.00 53 1011.8
20260501183202 94 118 5.0 6.0 0.00 0.00 0.00 52 1011.9
20260501182658 94 308 2.0 3.0 0.00 0.00 0.00 51 1012.0
20260501182155 92 252 0.0 1.0 0.00 0.00 0.00 53 1012.3
20260501181652 92 226 2.0 2.0 0.00 0.00 0.00 53 1012.2
20260501181149 94 315 3.0 3.0 0.00 0.00 0.00 51 1012.1
20260501180647 94 259 2.0 3.0 0.00 0.00 0.00 51 1012.2
20260501180143 95 274 1.0 1.0 0.00 0.00 0.00 50 1012.2
20260501175640 96 307 2.0 3.0 0.00 0.00 0.00 48 1012.3
20260501175137 95 294 1.0 1.0 0.00 0.00 0.00 49 1012.4
20260501174634 95 313 2.0 2.0 0.00 0.00 0.00 49 1012.4
20260501174131 95 270 2.0 3.0 0.00 0.00 0.00 52 1012.6